User: anonymous   Login
Location: B?dargowo
(53.3916°N, 14.4413°E)
Time: 12:02:35
(UTC+00:00)
Language:

DMSP 5D-2 F13 DEB - Orbit

View from above orbital plane
View from above orbital plane
View from above satellite
View from above satellite

Ground track
Ground track

The orbit data is extracted from the following two-line orbital elements,

1 42294U 95015HL  24169.25895222  .00022197  00000-0  78125-2 0  9994
2 42294  98.8879 168.0911 0030080 265.1094  94.6656 14.34570879468255
Epoch (UTC): 17 June 2024 06:12:53
Eccentricity: 0.0030080
inclination: 98.8879°
perigee height: 755 km
apogee height: 798 km
right ascension of ascending node: 168.0911°
argument of perigee: 265.1094°
revolutions per day: 14.34570879
mean anomaly at epoch: 94.6656°
orbit number at epoch: 46825

The dashed part of the orbit path shows where the satellite is in the earth's shadow,  

DLR